Time,TemperatureF,DewpointF,PressureIn,WindDirection,WindDirectionDegrees,WindSpeedMPH,WindSpeedGustMPH,Humidity,HourlyPrecipIn,Conditions,Clouds,dailyrainin,SoftwareType,DateUTC
2014-01-23 00:09:00,23.2,9.0,30.21,NW,304,0.0,-999.0,56,-99.99,,,0.00,weatherlink.com 1.10,2014-01-23 05:09:00,
2014-01-23 00:24:00,23.2,11.0,30.21,NW,304,0.0,-999.0,59,-99.99,,,0.00,weatherlink.com 1.10,2014-01-23 05:24:00,
2014-01-23 00:39:00,22.9,12.0,30.21,NW,304,0.0,-999.0,63,-99.99,,,0.00,weatherlink.com 1.10,2014-01-23 05:39:00,
2014-01-23 00:54:00,22.6,11.0,30.21,NW,304,0.0,-999.0,62,-99.99,,,0.00,weatherlink.com 1.10,2014-01-23 05:54:00,
2014-01-23 01:09:00,22.4,11.0,30.21,NW,304,0.0,-999.0,63,-99.99,,,0.00,weatherlink.com 1.10,2014-01-23 06:09:00,
2014-01-23 01:24:00,22.2,10.0,30.22,NW,304,0.0,-999.0,60,-99.99,,,0.00,weatherlink.com 1.10,2014-01-23 06:24:00,
2014-01-23 01:39:00,22.4,11.0,30.23,NW,304,0.0,-999.0,61,-99.99,,,0.00,weatherlink.com 1.10,2014-01-23 06:39:00,
2014-01-23 01:54:00,22.5,12.0,30.23,NW,304,0.0,-999.0,63,-99.99,,,0.00,weatherlink.com 1.10,2014-01-23 06:54:00,
2014-01-23 02:09:00,22.6,12.0,30.23,NW,304,0.0,-999.0,64,-99.99,,,0.00,weatherlink.com 1.10,2014-01-23 07:09:00,
2014-01-23 02:24:00,22.5,12.0,30.23,NW,304,0.0,-999.0,64,-99.99,,,0.00,weatherlink.com 1.10,2014-01-23 07:24:00,
2014-01-23 02:39:00,22.4,13.0,30.23,NW,304,0.0,-999.0,67,-99.99,,,0.00,weatherlink.com 1.10,2014-01-23 07:39:00,
2014-01-23 02:54:00,22.2,12.0,30.24,NW,304,0.0,-999.0,66,-99.99,,,0.00,weatherlink.com 1.10,2014-01-23 07:54:00,
2014-01-23 03:09:00,21.9,12.0,30.24,NW,304,0.0,-999.0,66,-99.99,,,0.00,weatherlink.com 1.10,2014-01-23 08:09:00,
2014-01-23 03:24:00,21.7,13.0,30.26,NW,304,2.0,-999.0,68,-99.99,,,0.00,weatherlink.com 1.10,2014-01-23 08:24:00,
2014-01-23 03:39:00,21.6,11.0,30.26,NW,304,0.0,-999.0,65,-99.99,,,0.00,weatherlink.com 1.10,2014-01-23 08:39:00,
2014-01-23 03:54:00,21.7,12.0,30.26,NW,304,1.0,-999.0,66,-99.99,,,0.00,weatherlink.com 1.10,2014-01-23 08:54:00,
2014-01-23 04:09:00,21.8,12.0,30.26,NW,304,4.0,-999.0,65,-99.99,,,0.00,weatherlink.com 1.10,2014-01-23 09:09:00,
2014-01-23 04:24:00,21.7,12.0,30.26,NW,304,1.0,-999.0,66,-99.99,,,0.00,weatherlink.com 1.10,2014-01-23 09:24:00,
2014-01-23 04:39:00,21.5,12.0,30.26,NW,304,0.0,-999.0,68,-99.99,,,0.00,weatherlink.com 1.10,2014-01-23 09:39:00,
2014-01-23 04:54:00,21.5,14.0,30.27,NW,304,1.0,-999.0,72,-99.99,,,0.00,weatherlink.com 1.10,2014-01-23 09:54:00,
2014-01-23 05:09:00,21.2,12.0,30.28,NW,304,0.0,-999.0,68,-99.99,,,0.00,weatherlink.com 1.10,2014-01-23 10:09:00,
2014-01-23 05:24:00,21.2,12.0,30.27,NW,304,0.0,-999.0,69,-99.99,,,0.00,weatherlink.com 1.10,2014-01-23 10:24:00,
2014-01-23 05:39:00,21.0,13.0,30.28,NW,304,0.0,-999.0,71,-99.99,,,0.00,weatherlink.com 1.10,2014-01-23 10:39:00,
2014-01-23 05:54:00,20.9,13.0,30.29,NW,304,0.0,-999.0,70,-99.99,,,0.00,weatherlink.com 1.10,2014-01-23 10:54:00,
2014-01-23 06:09:00,20.8,12.0,30.30,NW,304,0.0,-999.0,69,-99.99,,,0.00,weatherlink.com 1.10,2014-01-23 11:09:00,
2014-01-23 06:24:00,20.7,12.0,30.31,NW,304,0.0,-999.0,70,-99.99,,,0.00,weatherlink.com 1.10,2014-01-23 11:24:00,
2014-01-23 06:39:00,20.6,13.0,30.31,NW,304,0.0,-999.0,71,-99.99,,,0.00,weatherlink.com 1.10,2014-01-23 11:39:00,
2014-01-23 06:54:00,20.4,12.0,30.33,NW,304,0.0,-999.0,71,-99.99,,,0.00,weatherlink.com 1.10,2014-01-23 11:54:00,
2014-01-23 07:10:00,20.3,12.0,30.34,NW,304,0.0,-999.0,71,-99.99,,,0.00,weatherlink.com 1.10,2014-01-23 12:10:00,
2014-01-23 07:25:00,20.1,12.0,30.34,NW,304,0.0,-999.0,70,-99.99,,,0.00,weatherlink.com 1.10,2014-01-23 12:25:00,
2014-01-23 07:40:00,20.1,12.0,30.34,NW,304,0.0,-999.0,72,-99.99,,,0.00,weatherlink.com 1.10,2014-01-23 12:40:00,
2014-01-23 07:55:00,20.0,13.0,30.35,NW,304,0.0,-999.0,73,-99.99,,,0.00,weatherlink.com 1.10,2014-01-23 12:55:00,
2014-01-23 08:10:00,20.0,13.0,30.35,NW,304,0.0,-999.0,73,-99.99,,,0.00,weatherlink.com 1.10,2014-01-23 13:10:00,
2014-01-23 08:25:00,20.1,12.0,30.37,NW,304,0.0,-999.0,72,-99.99,,,0.00,weatherlink.com 1.10,2014-01-23 13:25:00,
2014-01-23 08:40:00,21.1,13.0,30.38,NW,305,8.0,-999.0,72,-99.99,,,0.00,weatherlink.com 1.10,2014-01-23 13:40:00,
2014-01-23 08:55:00,23.1,14.0,30.38,WNW,291,0.0,-999.0,68,-99.99,,,0.00,weatherlink.com 1.10,2014-01-23 13:55:00,
2014-01-23 09:10:00,24.9,14.0,30.38,NW,314,2.0,-999.0,64,-99.99,,,0.00,weatherlink.com 1.10,2014-01-23 14:10:00,
2014-01-23 09:25:00,26.4,14.0,30.38,NNW,332,0.0,-999.0,61,-99.99,,,0.00,weatherlink.com 1.10,2014-01-23 14:25:00,
2014-01-23 09:40:00,27.8,15.0,30.39,WNW,291,1.0,-999.0,58,-99.99,,,0.00,weatherlink.com 1.10,2014-01-23 14:40:00,
2014-01-23 09:55:00,28.9,15.0,30.40,West,276,2.0,-999.0,56,-99.99,,,0.00,weatherlink.com 1.10,2014-01-23 14:55:00,
2014-01-23 10:10:00,29.9,15.0,30.40,NW,318,6.0,-999.0,55,-99.99,,,0.00,weatherlink.com 1.10,2014-01-23 15:10:00,
2014-01-23 10:25:00,30.9,15.0,30.41,WSW,241,4.0,-999.0,53,-99.99,,,0.00,weatherlink.com 1.10,2014-01-23 15:25:00,
2014-01-23 10:40:00,31.7,16.0,30.41,NNW,333,10.0,-999.0,52,-99.99,,,0.00,weatherlink.com 1.10,2014-01-23 15:40:00,
2014-01-23 10:55:00,32.6,16.0,30.42,WSW,241,4.0,-999.0,50,-99.99,,,0.00,weatherlink.com 1.10,2014-01-23 15:55:00,
2014-01-23 11:10:00,33.4,15.0,30.43,NNE,25,5.0,-999.0,48,-99.99,,,0.00,weatherlink.com 1.10,2014-01-23 16:10:00,
2014-01-23 11:25:00,33.1,16.0,30.43,NNW,327,6.0,-999.0,49,-99.99,,,0.00,weatherlink.com 1.10,2014-01-23 16:25:00,
2014-01-23 11:40:00,33.7,16.0,30.43,NE,43,4.0,-999.0,49,-99.99,,,0.00,weatherlink.com 1.10,2014-01-23 16:40:00,
2014-01-23 11:55:00,33.9,15.0,30.43,WNW,299,8.0,-999.0,47,-99.99,,,0.00,weatherlink.com 1.10,2014-01-23 16:55:00,
2014-01-23 12:10:00,32.9,15.0,30.42,NW,318,5.0,-999.0,49,-99.99,,,0.00,weatherlink.com 1.10,2014-01-23 17:10:00,
2014-01-23 12:25:00,33.3,15.0,30.42,NW,314,14.0,-999.0,48,-99.99,,,0.00,weatherlink.com 1.10,2014-01-23 17:25:00,
2014-01-23 12:40:00,33.7,15.0,30.41,NNW,334,7.0,-999.0,46,-99.99,,,0.00,weatherlink.com 1.10,2014-01-23 17:40:00,
2014-01-23 12:55:00,35.5,16.0,30.41,NW,307,13.0,-999.0,46,-99.99,,,0.00,weatherlink.com 1.10,2014-01-23 17:55:00,
2014-01-23 13:10:00,36.2,17.0,30.40,North,1,6.0,-999.0,45,-99.99,,,0.00,weatherlink.com 1.10,2014-01-23 18:10:00,
2014-01-23 13:26:00,36.9,15.0,30.40,NW,306,15.0,-999.0,41,-99.99,,,0.00,weatherlink.com 1.10,2014-01-23 18:26:00,
2014-01-23 13:41:00,37.5,16.0,30.40,NNE,16,4.0,-999.0,42,-99.99,,,0.00,weatherlink.com 1.10,2014-01-23 18:41:00,
2014-01-23 13:56:00,36.0,15.0,30.40,West,275,8.0,-999.0,42,-99.99,,,0.00,weatherlink.com 1.10,2014-01-23 18:56:00,
2014-01-23 14:11:00,36.1,15.0,30.39,WNW,284,6.0,-999.0,43,-99.99,,,0.00,weatherlink.com 1.10,2014-01-23 19:11:00,
2014-01-23 14:26:00,37.1,15.0,30.39,SW,228,6.0,-999.0,41,-99.99,,,0.00,weatherlink.com 1.10,2014-01-23 19:26:00,
2014-01-23 14:41:00,36.5,15.0,30.39,West,275,6.0,-999.0,42,-99.99,,,0.00,weatherlink.com 1.10,2014-01-23 19:41:00,
2014-01-23 14:56:00,36.8,17.0,30.39,NW,322,1.0,-999.0,44,-99.99,,,0.00,weatherlink.com 1.10,2014-01-23 19:56:00,
2014-01-23 15:11:00,36.3,17.0,30.39,NNE,32,12.0,-999.0,45,-99.99,,,0.00,weatherlink.com 1.10,2014-01-23 20:11:00,
2014-01-23 15:26:00,36.5,15.0,30.40,North,351,8.0,-999.0,42,-99.99,,,0.00,weatherlink.com 1.10,2014-01-23 20:26:00,
2014-01-23 15:41:00,36.2,15.0,30.41,WNW,300,9.0,-999.0,42,-99.99,,,0.00,weatherlink.com 1.10,2014-01-23 20:41:00,
2014-01-23 15:56:00,36.4,14.0,30.41,NNW,341,2.0,-999.0,40,-99.99,,,0.00,weatherlink.com 1.10,2014-01-23 20:56:00,
2014-01-23 16:11:00,35.3,14.0,30.42,NNW,335,5.0,-999.0,42,-99.99,,,0.00,weatherlink.com 1.10,2014-01-23 21:11:00,
2014-01-23 16:26:00,35.1,13.0,30.42,NNW,330,11.0,-999.0,41,-99.99,,,0.00,weatherlink.com 1.10,2014-01-23 21:26:00,
2014-01-23 16:41:00,34.3,13.0,30.43,WNW,289,5.0,-999.0,41,-99.99,,,0.00,weatherlink.com 1.10,2014-01-23 21:41:00,
2014-01-23 16:56:00,33.3,12.0,30.43,North,355,8.0,-999.0,41,-99.99,,,0.00,weatherlink.com 1.10,2014-01-23 21:56:00,
2014-01-23 17:11:00,32.3,11.0,30.44,North,11,3.0,-999.0,42,-99.99,,,0.00,weatherlink.com 1.10,2014-01-23 22:11:00,
2014-01-23 17:26:00,31.9,12.0,30.45,NNW,334,4.0,-999.0,43,-99.99,,,0.00,weatherlink.com 1.10,2014-01-23 22:26:00,
2014-01-23 17:41:00,31.0,11.0,30.45,WNW,297,5.0,-999.0,44,-99.99,,,0.00,weatherlink.com 1.10,2014-01-23 22:41:00,
2014-01-23 17:56:00,30.1,9.0,30.46,NNW,338,2.0,-999.0,42,-99.99,,,0.00,weatherlink.com 1.10,2014-01-23 22:56:00,
2014-01-23 18:11:00,29.4,9.0,30.46,WNW,296,5.0,-999.0,42,-99.99,,,0.00,weatherlink.com 1.10,2014-01-23 23:11:00,
2014-01-23 18:26:00,29.0,8.0,30.46,NNW,330,4.0,-999.0,42,-99.99,,,0.00,weatherlink.com 1.10,2014-01-23 23:26:00,
2014-01-23 18:41:00,28.7,8.0,30.47,WNW,287,7.0,-999.0,42,-99.99,,,0.00,weatherlink.com 1.10,2014-01-23 23:41:00,
2014-01-23 19:11:00,28.0,7.0,30.47,NW,326,7.0,-999.0,42,-99.99,,,0.00,weatherlink.com 1.10,2014-01-24 00:11:00,
2014-01-23 19:26:00,27.4,6.0,30.47,North,351,7.0,-999.0,40,-99.99,,,0.00,weatherlink.com 1.10,2014-01-24 00:26:00,
2014-01-23 19:41:00,26.8,5.0,30.48,NW,316,1.0,-999.0,40,-99.99,,,0.00,weatherlink.com 1.10,2014-01-24 00:41:00,
2014-01-23 19:56:00,26.3,4.0,30.48,West,276,8.0,-999.0,39,-99.99,,,0.00,weatherlink.com 1.10,2014-01-24 00:56:00,
2014-01-23 20:11:00,25.7,3.0,30.50,NW,322,10.0,-999.0,38,-99.99,,,0.00,weatherlink.com 1.10,2014-01-24 01:11:00,
2014-01-23 20:26:00,25.0,3.0,30.50,NW,311,2.0,-999.0,38,-99.99,,,0.00,weatherlink.com 1.10,2014-01-24 01:26:00,
2014-01-23 20:41:00,24.5,2.0,30.50,NW,316,7.0,-999.0,38,-99.99,,,0.00,weatherlink.com 1.10,2014-01-24 01:41:00,
2014-01-23 20:56:00,24.1,3.0,30.51,NW,316,6.0,-999.0,41,-99.99,,,0.00,weatherlink.com 1.10,2014-01-24 01:56:00,
2014-01-23 21:11:00,23.6,3.0,30.51,WSW,258,2.0,-999.0,42,-99.99,,,0.00,weatherlink.com 1.10,2014-01-24 02:11:00,
2014-01-23 21:26:00,22.9,3.0,30.52,NNW,337,6.0,-999.0,43,-99.99,,,0.00,weatherlink.com 1.10,2014-01-24 02:26:00,
2014-01-23 21:41:00,22.1,2.0,30.52,NNW,332,7.0,-999.0,41,-99.99,,,0.00,weatherlink.com 1.10,2014-01-24 02:41:00,
2014-01-23 21:56:00,21.6,1.0,30.52,NNW,337,9.0,-999.0,40,-99.99,,,0.00,weatherlink.com 1.10,2014-01-24 02:56:00,
2014-01-23 22:11:00,21.0,0.0,30.52,NNW,346,5.0,-999.0,40,-99.99,,,0.00,weatherlink.com 1.10,2014-01-24 03:11:00,
2014-01-23 22:26:00,20.6,0.0,30.54,NNW,331,7.0,-999.0,41,-99.99,,,0.00,weatherlink.com 1.10,2014-01-24 03:26:00,
2014-01-23 22:41:00,20.0,1.0,30.56,North,6,4.0,-999.0,43,-99.99,,,0.00,weatherlink.com 1.10,2014-01-24 03:41:00,
2014-01-23 22:56:00,19.8,1.0,30.57,WNW,300,8.0,-999.0,43,-99.99,,,0.00,weatherlink.com 1.10,2014-01-24 03:56:00,
2014-01-23 23:11:00,19.4,0.0,30.56,WNW,289,6.0,-999.0,43,-99.99,,,0.00,weatherlink.com 1.10,2014-01-24 04:11:00,
2014-01-23 23:27:00,19.1,0.0,30.57,NW,305,6.0,-999.0,44,-99.99,,,0.00,weatherlink.com 1.10,2014-01-24 04:27:00,
2014-01-23 23:42:00,18.8,1.0,30.58,NNW,330,10.0,-999.0,45,-99.99,,,0.00,weatherlink.com 1.10,2014-01-24 04:42:00,